Simultaneous Nadir Overpasses (SNOs) Predictions

Prediction of SNOs between AURA and NPP Satellite Orbit:

Table of predicted SNOs for the next 14.0 days since TLE Epoch: 11/9/2024
Index Date (AURA) Time (AURA) Lat,Lon (AURA) SZA (AURA ) Date (NPP) Time (NPP) Lat,Lon (NPP) SZA (NPP ) Distance(km) Time Diff (sec)
1 11/10/2024 17:43:57 80.89,-172.27 105.98 11/10/2024 17:43:48 80.89,-172.39 106.00 2.03 9
2 11/10/2024 18:33:17 -80.95, -3.80 74.13 11/10/2024 18:34:29 -80.95, -3.68 74.20 2.04 72
3 11/13/2024 05:47:07 -80.90,-172.98 73.36 11/13/2024 05:46:56 -80.90,-172.97 73.36 0.33 11
4 11/13/2024 06:36:25 80.96, -4.39 106.52 11/13/2024 06:37:37 80.96, -4.23 106.45 2.72 72
5 11/15/2024 17:50:10 80.92,-173.42 107.24 11/15/2024 17:50:02 80.92,-173.35 107.24 1.34 8
6 11/15/2024 18:39:28 -81.03, -4.24 72.97 11/15/2024 18:40:42 -81.00, -4.23 73.02 3.14 74
7 11/18/2024 05:53:13 -80.92,-174.15 72.15 11/18/2024 05:53:10 -80.91,-174.21 72.14 1.20 3



Historial Predications of SNOs between AURA and NPP
